Regional Weather Roundup
Issued by NWS

Home | Current Version | Previous Version | Text Only | Print | Product List | Glossary On
Versions: 1 2 3 4 5 6 7 8 9 10 11 12 13 14 15 16 17 18 19 20 21 22 23 24 25 26 27 28 29 30 31 32 33 34 35 36 37 38 39 40 41 42 43 44 45 46 47 48 49 50
000
ASUS43 KLMK 040002
RWRKY
KENTUCKY REGIONAL WEATHER ROUNDUP
NATIONAL WEATHER SERVICE LOUISVILLE KY
800 PM EDT MON AUG 03 2015

NOTE "FAIR" INDICATES FEW OR NO CLOUDS BELOW 12,000 FEET
WITH NO SIGNIFICANT WEATHER AND/OR OBSTRUCTIONS TO VISIBILITY.

KYZ001>023-026-027-061>063-070>075-040100-
WESTERN AND SOUTH CENTRAL KENTUCKY

CITY           SKY/WX    TMP DP  RH WIND       PRES   REMARKS
PADUCAH        SUNNY     88  75  65 SW3       29.88F HX  97
HENDERSON      CLEAR     88  70  55 W6        29.86S HX  92
OWENSBORO      CLEAR     89  75  63 W7        29.87S HX  98
HOPKINSVILLE   PTCLDY    88  72  60 W7        29.91R HX  94
BOWLING GREEN  MOCLDY    90  70  51 W12       29.90R HX  95
GLASGOW        NOT AVBL
$$

KYZ024-025-028>034-038-045-046-053-040100-
NORTH CENTRAL KENTUCKY

CITY           SKY/WX    TMP DP  RH WIND       PRES   REMARKS
LOUISVILLE/SDF PTCLDY    89  67  47 W12       29.85S HX  92
LOUISVILLE/LOU PTCLDY    89  67  47 W12       29.86S HX  92
FORT KNOX      PTCLDY    85  71  64 SW5       29.87R HX  90
$$

KYZ035>037-039>044-047>052-055>060-089>105-040100-
NORTHEAST KENTUCKY

CITY           SKY/WX    TMP DP  RH WIND       PRES   REMARKS
LEXINGTON      PTCLDY    84  71  65 SW8       29.88S
COVINGTON      MOCLDY    73  66  78 E5        29.87F
FRANKFORT      MOCLDY    85  69  58 SW9       29.86S
$$

KYZ054-064>069-076>088-106>120-040100-
SOUTHEAST KENTUCKY

CITY           SKY/WX    TMP DP  RH WIND       PRES   REMARKS
JACKSON        CLEAR     81  70  69 VRB3      29.92F
LONDON         CLEAR     86  66  51 SW6       29.94R
SOMERSET       NOT AVBL
MIDDLESBORO    CLEAR     83  70  63 CALM      29.96R
MONTICELLO     CLEAR     85  73  67 CALM      29.95S HX  91
$$



USA.gov is the U.S. government's official web portal to all federal, state and local government web resources and services.